Orbital Elements at Epoch 2459000.5 (2020-May-31.0) TDB
Reference: JPL 20 (heliocentric ecliptic J2000)
Element | Value | Uncertainty (1-sigma) | Units |
e | .2017073260191345 | 4.0344e-08 | |
a | 2.414090449777777 | 1.0309e-08 | au |
q | 1.927150720384772 | 9.8663e-08 | au |
i | 1.286553256965291 | 5.3409e-06 | deg |
node | 137.5694559249602 | 0.00019973 | deg |
peri | 268.2479427222031 | 0.00020021 | deg |
M | 139.5683310797847 | 1.3568e-05 | deg |
tp | 2458469.354974490273 (2018-Dec-16.85497449) | 5.0457e-05 | TDB |
period | 1370.025762321357 3.75 | 8.7757e-06 2.403e-08 | d yr |
n | .2627687813621986 | 1.6832e-09 | deg/d |
Q | 2.901030179170781 | 1.2388e-08 | au |
|
| | Orbit Determination Parameters
Additional Information
|